Regional Weather Roundup
Issued by NWS Newport/Morehead, NC

Current Version | Previous Version | Text Only | Print | Product List | Glossary Off
Versions: 1 2 3 4 5 6 7 8 9 10 11 12 13 14 15 16 17 18 19 20 21 22 23 24 25 26 27 28 29 30 31 32 33 34 35 36 37 38 39 40 41 42 43 44 45 46 47 48 49 50
000 ASUS42 KMHX 291513 RWRMHX WEATHER ROUNDUP FOR EASTERN NORTH CAROLINA NATIONAL WEATHER SERVICE NEWPORT/MOREHEAD CITY NC 1100 AM EDT WED MAR 29 2017 NOTE: "FAIR" INDICATES FEW OR NO CLOUDS BELOW 12,000 FEET WITH NO SIGNIFICANT WEATHER AND/OR OBSTRUCTIONS TO VISIBILITY NCZ015>017-031-032-045>047-102-103-291600- NORTH COAST CITY SKY/WX TMP DP RH WIND PRES REMARKS EDENTON MOSUNNY 64 52 65 E9 30.09R ELIZABETH CITY MOSUNNY 62 50 64 NE14 30.08R KITTY HAWK NOT AVBL MANTEO PTSUNNY 55 48 76 NE12G21 30.09R $$ NCZ045>047-081-094-103-104-291600- CENTRAL COAST CITY SKY/WX TMP DP RH WIND PRES REMARKS FRISCO CLOUDY 55 48 77 NE12G25 30.06R $$ NCZ095-097-098-100-101-291600- SOUTHERN COAST CITY SKY/WX TMP DP RH WIND PRES REMARKS BEAUFORT CLOUDY 61 58 90 N15G23 30.06R CEDAR ISLAND NOT AVBL JACKSONVILLE PTSUNNY 65 59 81 NE14 30.05R PINEY ISLAND PTSUNNY N/A N/A N/A N14G22 30.07R WILMINGTON PTSUNNY 73 58 59 NE9 30.04R $$ NCZ011>013-027>030-043-044-078>080-089-090>093-098-291600- COASTAL PLAIN CITY SKY/WX TMP DP RH WIND PRES REMARKS AHOSKIE N/A 61 51 69 NE6 30.10R CLINTON MOSUNNY 68 58 70 NE6G17 30.08R ELIZABETHTOWN SUNNY 70 58 65 N5 30.06R GOLDSBORO SUNNY 66 58 74 N10 30.07R GREENVILLE MOSUNNY 64 54 68 E12 30.10R HAVELOCK NOT AVBL KENANSVILLE MOSUNNY 68 57 68 NE7 30.07R KINSTON MOSUNNY 64 55 72 NE10G18 30.08R NEW BERN CLOUDY 61 56 83 NE16G22 30.08R RICHLANDS CLOUDY 65 58 78 NE15 30.07R ROCKY MOUNT PTSUNNY 65 54 67 NE14G20 30.09R WASHINGTON CLOUDY 60 54 81 NE8 30.09R WHITEVILLE SUNNY 71 57 61 NE10 30.04R $$ AMZ130-135-150-152-154-156-158-170-250-252-270-ANZ085-086-088-633-658-670-291600- MARINE OBSERVATIONS STATION/POSITION TIME TEMP WIND PRES WAVE SWELL AIR SEA DIR/SP/G HT/PER HT/PER (UTC) (F) (DEG/KT/KT) (MB) (FT/S) (FT/S) CHESAPEAKE LIGHT NOT AVBL 64 E VA BEACH 1450 49 47 30/ 19/ 21 1017.2 5/ 6 3/10 DUCK 1448 50 48 20/ 8/ 9 1018.2 2 E DUCK 1430 51 N/A 5/ 5 2/11 OREGON INLET 1442 51 57 360/ 9/ 14 1018.3 13E OREGON INLT 1448 50 N/A 6/ 6 5/ 6 HATTERAS CG 1448 52 61 20/ 19/ 26 1017.5 DIAMOND BUOY 1450 55 73 20/ 21/ 25 1016.9 6/10 3/10 CAPE LOOKOUT 1500 59 30/ 19/ 21 1017.6 BEAUFORT LAB 1448 59 62 30/ 10/ 16 1016.9 30 SE NEW RVR IN 1408 63 50/ 14/ 19 1016.4 30 SE NEW RVR IN 1443 64 N/A 5/10 2/11 27 SE WRIGHTSVLE 1408 65 72 50/ 14/ 19 1015.5 5 SE WRIGHTSVLE 1408 61 59 30/ 12/ 16 1016.1 225 S CAPE HAT 1350 70 72 260/ 6/ 8 1014.8 6/10 7/10 41 SE CHARLESTON 1450 70 70 40/ 8/ 10 1016.1 5/10 5/10 $$

USA.gov is the U.S. government's official web portal to all federal, state and local government web resources and services.